Погода в Тобольске

Погода в Тобольске : погода сейчас, прогноз погоды и архив. Всё, что Вы хотите узнать о погоде в Тобольске!

Хотите узнать прогноз погоды в Тобольске? Тогда Вам сюда: Погода в Тобольске

Поиск расширенной информации на нашем сайте:

Другие новости

Новости СМИ2

Главная страница сайта

Новости сайта

02.10.2013

Напоминаем, что на нашем новом сайте вы можете получить высокодетализированные прогнозы погоды по пунктам России, СНГ и мира (включающие важные для авиации метеовеличины, такие как направление и скорость ветра, видимость, явления погоды, количество и форма облачности, нижняя и верхняя граница облачности), а также ознакомиться с разнообразными материалами по авиационной метеорологии и подборкой полезных ссылок на эту тему.

Сайт Метеоцентр.Азия посвящён разработке технологий оптимизации авиаметеорологического обслуживания, включая проектирование и перспективное создание нескольких автоматизированных авиаметеорологических систем:
- система выпуска высокодетальных прогностических карт явлений погоды для нижнего воздушного пространства по России и ближнему зарубежью;
- система верификации прогнозов TAF (выпускаемых синоптиками официальных АМСГ РФ и ближнего зарубежья) и AUTOTAF (выпускаемых сайтом Метеоцентр.Азия) - выявление ошибок, онлайн-сопоставление с фактической погодой METAR, автоматическое внесение коррективов в прогнозы при резком отклонении фактической погоды от прогноза, подсчёт оправдываемости прогнозов по элементам и в целом;
- система обработки, анализа и отображения авиаметеорологической информации для применения провайдерами метеорологической информации.


Погода в Тобольске - сегодня

Время (UTC), дата Ветер
(°,м/с) 
Видим.   Явления Облачность Т
(°С)
Тd
(°С)
f(%) Тe
(°С)
Pmin
(гПа)
dP
(гПа)
Po
(мм)
O2
(г/м3)
Тmin Tmax R s Состояние
почвы
06 26.05.17 180 (Ю) 20000 м    ясно 
+13.6 -5.5 26 +14  1022.5  -0.9  762  293           
09 26.05.17 180 (Ю) 4{10}  20000 м    4/0 верхняя 
[Ci sp]
+16.9 -3.7 24 +17  1020.1  -2.3  761  289           
12 26.05.17 200 (Ю) 5-10{10}  20000 м    8/4 600 м средняя, верхняя 
[Sc|Ac trans|Ci sp]
+19.1 -2.7 23 +19  1017.5  -2.6  759  286           
15 26.05.17 150 (ЮВ) 4{11}  20000 м    10/0 средняя 
[Ac und]
+16.7 -0.5 31 +17  1015.2  -2.3  757  288    +19.1       
18 26.05.17 180 (Ю) 5{11}  10 км    10/0 средняя 
[Ac und]
+15.6 +1.2 38 +15  1013.3  -2  756  288           
21 26.05.17 200 (Ю) 4{11}  10 км    10/0 средняя 
[Ac und]
+16 +3.8 44 +16  1012.2  -1  755  287           
00 27.05.17 190 (Ю) 3{11}  20000 м    8/0 средняя 
[Ac trans]
+14.5 +4.5 51 +15  1011.4  -0.8  754  288           
03 27.05.17 200 (Ю) 20000 м    8/0 средняя 
[Ac trans]
+18 +5.8 45 +19  1010.7  -0.7  754  284  +14.2         
06 27.05.17 210 (ЮЗ) 20000 м    6/0 верхняя 
[Ci fib]
+24.9 +4.7 27 +25  1009.2  -1.4  753  277           
12 27.05.17 200 (Ю) 5{11}  20000 м    10/5 600 м средняя, верхняя 
[Sc|Ac trans|Ci sp]
+24.4 +3.8 26 +24  1006.1  -1.3  750  277           
15 27.05.17 150 (ЮВ) 2{10}  20000 м    10/3 600 м средняя, верхняя 
[Sc|Ac trans|Ci sp]
+20.9 +6.3 39 +21  1004.6  -1.6  749  279    +20.1       
18 27.05.17 120 (ЮВ) 2{10}  10 км    10/3 600 м верхняя 
[Sc|Ci sp]
+13 +5.9 62 +13  1003.6  -1.2  748  287           
21 27.05.17 100 (В) 10 км    6/0 средняя 
[Ac trans]
+11.6 +5.9 68 +12  1001  -2.5  746  288           
00 28.05.17 110 (В) 20000 м    10/0 средняя, верхняя 
[Ac trans|Ci sp]
+13.1 +6.1 62 +13  998.5  -2.5  745  285           
03 28.05.17 120 (ЮВ) 20000 м    10/3 600 м средняя, верхняя 
[Sc|Ac trans|Ci sp]
+16.5 +7 53 +17  996.4  -2  743  281  +9.6         
06 28.05.17 120 (ЮВ) 20000 м    10/3 600 м средняя, верхняя 
[Sc|Ac und|Ci sp]
+17.3 +7.8 54 +17  995.3  -1.1  742  280           
09 28.05.17 120 (ЮВ) 20000 м    10/4 600 м кучево-дожд., средняя 
[Cb cap|Ac und]
+15 +10.6 75 +17  994.8  -0.4  742  281           
12 28.05.17 140 (ЮВ) 20000 м    10/3 600 м кучево-дожд., средняя 
[Cb cap|Ac und]
+14.7 +11.8 83 +19  994.9  0.1  742  281           
15 28.05.17 300 (СЗ) 10 км  гроза, ливневой дождь  10/8 600 м кучево-дожд., средняя 
[Cb cap|Ac und]
+14.2 +10.9 81 +17  997.2  2.3  744  283    +18.1  0.0     
21 28.05.17 310 (СЗ) 4{11}  10 км    10/6 600 м кучево-дожд., средняя 
[Cb cap|Ac und]
+4.1 +1.8 85 +2  1002.7  2.7  748  296           
00 29.05.17 320 (СЗ) 4{11}  10 км    10/10 600 м 
[Sc]
+3.8 +0.5 79 +2  1004  1.2  748  297           
03 29.05.17 310 (СЗ) 3{10}  20000 м    10/10 600 м 
[Sc]
+3.8 +0.1 77 +3  1005.1  1.1  749  298  +3.6       
06 29.05.17 310 (СЗ) 3{10}  20000 м    10/8 600 м кучево-дожд., средняя, верхняя 
[Cb cap|Ac und|Ci fib]
+6.5 +0.1 64 +6  1005.5  0.5  750  295           
09 29.05.17 360 (С) 20000 м    10/10 600 м кучево-дожд. 
[Cb cap]
+7.8 -1.7 51 +7  1005.3  -0.2  749  294           
12 29.05.17 340 (С) 20000 м    10/8 600 м кучево-дожд., средняя 
[Cb cap|Ac und]
+7 -2.6 50 +6  1005.1  -0.1  749  295           
Время (UTC), дата Ветер
(°,м/с) 
Видим.   Явления Облачность Т
(°С)
Тd
(°С)
f(%) Тe
(°С)
Pmin
(гПа)
dP
(гПа)
Po
(мм)
O2
(г/м3)
Тmin Tmax R s Состояние
почвы

Для получения пояснительной информации подведите курсор к названию столбца.

ПОГОДА в Тобольске - архив

Всё, что Вы хотите узнать о погоде в Тобольске - удобно и подробно!

Выберите нужную дату (начиная с 1 января 2015* года) и нажмите кнопку "Найти".
Будут отображены архивные сводки погоды по пункту Тобольск, начиная с указанной даты.


Отображать данные в формате CSV (для использования в таблицах Excel)


Внимание! Наш архив погоды предназначен исключительно для личного некоммерческого использования в познавательных целях. Если Вам необходимы официальные справки о состоянии погоды (для производственных, юридических, коммерческих и т.п. целей), обращайтесь в органы Росгидромета.

*Примечание: данная дата относится к архиву по метеостанциям СССР (Россия, СНГ, Балтия).
Архив по метеостанциям Зарубежной Европы и Азии (кроме Китая) хранится 10 дней, по другим регионам земного шара (Китай, Африка, Америка, Австралия, Океания) - 1 день.

Тобольск - район местоположения метеостанции


Название, широта, долгота, высота метеостанции:
Тобольск 58.2°ш. 68.2°д. 50 м над ур. моря [Российская Федерация]

Дополнительная информация

В oтличие oт бoльшинства пoгoдных сайтoв мы публикуем пoдрoбную метеoинфoрмацию в детальнoм прoфессиoнальнoм фoрмате.

Характеристики температуры и влажнoсти вoздуха измеряются на высoте 2 м в тени вдали oт зданий и деревьев.
Скoрoсть ветра измеряется на высoте 10 м (на урoвне рoста челoвека скoрoсть ветра ниже в 1.5-2 раза). Если метеoстанция нахoдится в гoрoде или в лесу, тo скoрoсть ветра занижена на 2-4 м/с пo сравнению с oткрытым местoм. Скoрoсть ветра над акватoриями крупных рек и oзёр, а также на вершинах хoлмoв на 2-5 м/с выше, чем в oбычных услoвиях.
Атмoсфернoе давление в разных тoчках местнoсти мoжет значительнo oтличаться oт давления на метеoстанции, в зависимoсти oт услoвий рельефа (при пoдъёме на 10 м давление пoнижается примернo на 1 мм рт.ст.).